Location: Newark
(52.3500°N, 175.9667°E)
Time: 10:05:07
(UTC+00:00)

Transit 4A - Pass Details

Date: 28 April 2021
Orbit: 870 x 974 km, 66.8° (Epoch: 07 May)

Event Time Altitude Azimuth Distance (km) Brightness Sun altitude
Rises 19:37:15 0° 315° (NW) 3,507 10.5 24.1°
Reaches altitude 10° 19:40:17 10° 301° (WNW) 2,549 9.8 24.6°
Maximum altitude 19:44:39 22° 252° (WSW) 1,816 9.1 25.2°
Drops below altitude 10° 19:48:58 10° 204° (SSW) 2,514 10.1 25.9°
Sets 19:51:57 0° 189° (S) 3,445 10.9 26.3°
